Stations météo

réclame
Mon MeteoGroup
Chillingham Barns, Grande-Bretagne (99196): Température de l'air & dewpoint: 11.10.2018 06:00:00 - 17.10.2018 06:00:00 (BST)Chillingham Barns, Grande-Bretagne (99196): Quantités de précipitations: 11.10.2018 06:00:00 - 17.10.2018 06:00:00 (BST)
Date & Time tt [°C] td [°C] rr [mm]
17.10.2018 06:00:00 10,9 7,9 0,0
17.10.2018 05:00:00 10,3 7,5 0,0
17.10.2018 04:00:00 10,0 7,6 0,0
17.10.2018 03:00:00 10,4 7,9 0,0
17.10.2018 02:00:00 11,1 8,7 0,0
17.10.2018 01:00:00 11,9 10,4 0,0
17.10.2018 00:00:00 12,1 10,6 0,0
16.10.2018 23:00:00 12,0 10,5 0,0
16.10.2018 22:00:00 12,0 10,3 0,0
16.10.2018 21:00:00 12,3 10,3 0,0
16.10.2018 20:00:00 12,2 10,1 0,0
16.10.2018 19:00:00 12,6 9,9 0,0
16.10.2018 18:00:00 12,7 9,3 0,0
16.10.2018 17:00:00 13,9 8,1 0,0
16.10.2018 16:00:00 14,8 9,3 0,0
16.10.2018 15:00:00 14,9 9,9 0,0
16.10.2018 14:00:00 14,7 10,9 0,0
16.10.2018 13:00:00 14,0 11,2 0,0
16.10.2018 12:00:00 12,5 10,6 0,0
16.10.2018 11:00:00 11,6 10,3 0,0
16.10.2018 10:00:00 10,5 9,4 0,0
16.10.2018 09:00:00 9,7 9,1 0,0
16.10.2018 08:00:00 9,4 9,0 0,0
16.10.2018 07:00:00 9,2 8,9 0,0
16.10.2018 06:00:00 9,0 8,6 0,2
16.10.2018 05:00:00 8,8 8,4 0,0
16.10.2018 04:00:00 8,4 7,9 0,0
16.10.2018 03:00:00 7,4 6,9 0,0
16.10.2018 02:00:00 7,6 7,2 0,0
16.10.2018 01:00:00 6,7 6,0 0,0
16.10.2018 00:00:00 7,1 6,3 0,0
15.10.2018 23:00:00 7,0 6,1 0,0
15.10.2018 22:00:00 6,9 6,0 0,0
15.10.2018 21:00:00 6,8 6,4 0,0
15.10.2018 20:00:00 7,1 6,7 0,0
15.10.2018 19:00:00 7,0 5,9 0,0
15.10.2018 18:00:00 9,3 5,8 0,0
15.10.2018 17:00:00 10,4 5,8 0,0
15.10.2018 16:00:00 12,0 4,7 0,0
15.10.2018 15:00:00 12,3 6,6 0,0
15.10.2018 14:00:00 9,4 7,0 0,0
15.10.2018 13:00:00 7,6 6,6 0,0
15.10.2018 12:00:00 6,4 6,1 0,0
15.10.2018 11:00:00 5,5 5,3 0,0
15.10.2018 10:00:00 3,1 2,9 0,0
15.10.2018 09:00:00 0,7 0,6 0,0
15.10.2018 08:00:00 0,2 0,1 0,0
15.10.2018 07:00:00 0,1 -0,1 0,0
15.10.2018 06:00:00 0,1 -0,1 0,0
15.10.2018 05:00:00 0,0 -0,2 0,0
15.10.2018 04:00:00 -0,1 -0,4 0,0
15.10.2018 03:00:00 0,8 0,6 0,0
15.10.2018 02:00:00 1,6 1,3 0,0
15.10.2018 01:00:00 1,5 1,2 0,0
15.10.2018 00:00:00 2,4 2,2 0,0
14.10.2018 23:00:00 3,0 2,7 0,0
14.10.2018 22:00:00 3,9 3,6 0,0
14.10.2018 21:00:00 4,2 3,7 0,0
14.10.2018 20:00:00 4,9 3,9 0,0
14.10.2018 19:00:00 6,4 4,8 0,0
14.10.2018 18:00:00 8,3 5,0 0,0
14.10.2018 17:00:00 9,9 5,2 0,0
14.10.2018 16:00:00 11,2 5,3 0,0
14.10.2018 15:00:00 9,6 7,2 0,0
14.10.2018 14:00:00 9,5 6,5 0,0
14.10.2018 13:00:00 9,3 6,0 0,0
14.10.2018 12:00:00 9,0 6,5 0,0
14.10.2018 11:00:00 9,1 5,8 0,0
14.10.2018 10:00:00 9,2 5,9 0,0
14.10.2018 09:00:00 9,4 5,4 0,0
14.10.2018 08:00:00 9,5 5,3 0,0
14.10.2018 07:00:00 9,6 6,0 0,0
14.10.2018 06:00:00 9,9 7,0 0,0
14.10.2018 05:00:00 9,8 6,8 0,0
14.10.2018 04:00:00 10,9 7,8 0,0
14.10.2018 03:00:00 12,0 9,2 0,0
14.10.2018 02:00:00 13,6 10,7 0,0
14.10.2018 01:00:00 15,0 11,2 0,0
14.10.2018 00:00:00 15,4 12,6 0,0
13.10.2018 23:00:00 15,9 13,4 0,0
13.10.2018 22:00:00 16,4 14,2 0,2
13.10.2018 21:00:00 16,6 14,2 0,2
13.10.2018 20:00:00 18,7 15,1 0,0
13.10.2018 19:00:00 18,4 15,1 0,2
13.10.2018 18:00:00 16,6 15,9 0,8
13.10.2018 17:00:00 16,2 15,5 0,4
13.10.2018 16:00:00 16,4 15,7 0,8
13.10.2018 15:00:00 15,3 15,1 1,4
13.10.2018 14:00:00 14,0 13,6 1,6
13.10.2018 13:00:00 14,1 13,8 1,0
13.10.2018 12:00:00 14,0 13,6 3,6
13.10.2018 11:00:00 14,0 13,5 2,2
13.10.2018 10:00:00 14,0 13,5 1,2
13.10.2018 09:00:00 13,8 13,5 1,4
13.10.2018 08:00:00 12,8 12,5 0,6
13.10.2018 07:00:00 12,4 12,0 0,2
13.10.2018 06:00:00 12,4 11,6 0,2
13.10.2018 05:00:00 12,6 11,2 0,4
13.10.2018 04:00:00 12,7 11,1 0,8
13.10.2018 03:00:00 13,5 10,6 0,0
13.10.2018 02:00:00 13,6 10,8 0,0
13.10.2018 01:00:00 13,5 10,6 0,0
13.10.2018 00:00:00 13,7 11,1 0,0
12.10.2018 23:00:00 13,7 11,0 0,0
12.10.2018 22:00:00 14,5 11,5 0,2
12.10.2018 21:00:00 14,6 13,2 0,0
12.10.2018 20:00:00 13,7 12,3 1,0
12.10.2018 19:00:00 14,4 12,2 0,2
12.10.2018 18:00:00 16,9 15,4 0,0
12.10.2018 17:00:00 18,5 14,4 0,0
12.10.2018 16:00:00 16,8 14,5 0,4
12.10.2018 15:00:00 16,0 13,6 0,0
12.10.2018 14:00:00 16,1 13,1 0,0
12.10.2018 13:00:00 17,4 12,8 0,0
12.10.2018 12:00:00 16,8 12,2 0,0
12.10.2018 11:00:00 15,8 11,8 0,0
12.10.2018 10:00:00 13,9 11,1 0,0
12.10.2018 09:00:00 12,8 10,4 0,0
12.10.2018 08:00:00 11,6 10,1 0,6
12.10.2018 07:00:00 10,8 9,7 0,6
12.10.2018 06:00:00 10,3 8,5 0,0
12.10.2018 05:00:00 8,3 7,6 0,0
12.10.2018 04:00:00 9,1 8,1 0,0
12.10.2018 03:00:00 8,6 8,0 0,0
12.10.2018 02:00:00 9,0 8,4 0,0
12.10.2018 01:00:00 9,3 7,7 0,0
12.10.2018 00:00:00 10,6 8,7 0,0
11.10.2018 23:00:00 11,1 9,3 0,0
11.10.2018 22:00:00 12,5 9,9 0,0
11.10.2018 21:00:00 14,0 10,1 0,0
11.10.2018 20:00:00 14,6 12,0 0,0
11.10.2018 19:00:00 15,5 12,0 0,0
11.10.2018 18:00:00 16,1 12,2 0,0
11.10.2018 17:00:00 16,7 12,3 0,0
11.10.2018 16:00:00 17,0 12,3 0,0
11.10.2018 15:00:00 17,5 13,5 0,0
11.10.2018 14:00:00 15,9 12,9 0,0
11.10.2018 13:00:00 14,6 13,3 0,0
11.10.2018 12:00:00 14,0 13,2 0,4
11.10.2018 11:00:00 13,6 12,7 0,4
11.10.2018 10:00:00 13,8 12,6 0,0
11.10.2018 09:00:00 13,6 12,5 0,0
11.10.2018 08:00:00 12,7 12,4 0,0
11.10.2018 07:00:00 12,1 11,9 0,0
11.10.2018 06:00:00 12,2 12,0 0,0

tt = Température de l'air
td = dewpoint
rr = Quantités de précipitations

stations d'obs. à proximité